Regional Weather Roundup
Issued by NWS

Home | Current Version | Previous Version | Text Only | Print | Product List | Glossary On
Versions: 1 2 3 4 5 6 7 8 9 10 11 12 13 14 15 16 17 18 19 20 21 22 23 24 25 26 27 28 29 30 31 32 33 34 35 36 37 38 39 40 41 42 43 44 45 46 47 48 49 50
000
ASUS43 KMKX 301821
RWRWI

WISCONSIN REGIONAL WEATHER ROUNDUP
NATIONAL WEATHER SERVICE MILWAUKEE/SULLIVAN WI
100 PM CDT WED JUL 30 2014

NOTE: "FAIR" INDICATES FEW OR NO CLOUDS BELOW 12,000 FEET WITH NO
SIGNIFICANT WEATHER AND/OR OBSTRUCTIONS TO VISIBILITY.

WIZ001-002-006>008-014>016-023>028-301900-
NORTHWEST WISCONSIN

CITY           SKY/WX    TMP DP  RH WIND       PRES   REMARKS
SUPERIOR ARPT  FAIR      74  63  67 SW8       30.02F
6HR MIN TEMP:  48; 6HR MAX TEMP:  74;

ASHLAND        FAIR      73  59  61 SW10      30.03F
6HR MIN TEMP:  50; 6HR MAX TEMP:  73;

HAYWARD        FAIR      69  54  58 SW9       30.07F
6HR MIN TEMP:  51; 6HR MAX TEMP:  70;

SIREN          FAIR      74  58  57 W7        30.06F
6HR MIN TEMP:  52; 6HR MAX TEMP:  74;

RICE LAKE      FAIR      72  54  53 W5        30.08F
6HR MIN TEMP:  56; 6HR MAX TEMP:  71;

LADYSMITH      FAIR      68  57  67 W5        30.09F
6HR MIN TEMP:  55; 6HR MAX TEMP:  68;

EAU CLAIRE     FAIR      72  55  55 VRB5      30.07F
6HR MIN TEMP:  54; 6HR MAX TEMP:  73;

MENOMONIE      FAIR      75  56  52 W3        30.07F
6HR MIN TEMP:  56; 6HR MAX TEMP:  74;

NEW RICHMOND   FAIR      75  57  52 N5        30.07F
6HR MIN TEMP:  55; 6HR MAX TEMP:  76;

OSCEOLA        FAIR      75  59  57 W10       30.09F
6HR MIN TEMP:  54; 6HR MAX TEMP:  75;

$$

WIZ003>005-009-010-017-018-301900-
NORTH CENTRAL WISCONSIN

CITY           SKY/WX    TMP DP  RH WIND       PRES   REMARKS
WOODRUFF       PTSUNNY   72  53  51 W9        30.05F
6HR MIN TEMP:  53; 6HR MAX TEMP:  72;

RHINELANDER    FAIR      70  47  43 NW9       30.06F
6HR MIN TEMP:  51; 6HR MAX TEMP:  70;

EAGLE RIVER    FAIR      68  47  46 NW5       30.04F
6HR MIN TEMP:  50; 6HR MAX TEMP:  69;

LAND O LAKES   PTSUNNY   69  45  41 NW9       30.04F
6HR MIN TEMP:  51; 6HR MAX TEMP:  71;

PHILLIPS       FAIR      68  50  53 N3        30.05F
6HR MIN TEMP:  53; 6HR MAX TEMP:  68;

TOMAHAWK       PTSUNNY   68  51  56 CALM      30.07F
6HR MIN TEMP:  48; 6HR MAX TEMP:  68;

MEDFORD        FAIR      68  52  56 NW7       30.08F
6HR MIN TEMP:  51; 6HR MAX TEMP:  68;

MERRILL        FAIR      69  50  51 N5        30.06F
6HR MIN TEMP:  49; 6HR MAX TEMP:  70;

$$

WIZ029-030-035-036-043>047-301900-
CENTRAL WISCONSIN

CITY           SKY/WX    TMP DP  RH WIND       PRES   REMARKS
WAUSAU         FAIR      71  49  45 NW10      30.05F
6HR MIN TEMP:  51; 6HR MAX TEMP:  71; 6HR PCP: TRACE;

MOSINEE        MOSUNNY   72  46  40 NW7       30.07F
MARSHFIELD     PTSUNNY   72  52  49 NW8       30.07F
6HR MIN TEMP:  57; 6HR MAX TEMP:  73;

STEVENS POINT  FAIR      70  47  43 NW6       30.06F
6HR MIN TEMP:  51; 6HR MAX TEMP:  70;

WAUPACA        FAIR      76  49  38 N7        30.04F
6HR MIN TEMP:  58; 6HR MAX TEMP:  75;

WAUTOMA        FAIR      74  45  35 N8        30.04F
6HR MIN TEMP:  58; 6HR MAX TEMP:  75;

WISC RAPIDS    FAIR      74  49  41 N9        30.07F
6HR MIN TEMP:  57; 6HR MAX TEMP:  75;

CAMP DOUGLAS   MOSUNNY   72  63  73 VRB3      30.07F
$$

WIZ011>013-019>022-031-037>040-048>050-301900-
NORTHEAST WISCONSIN

CITY           SKY/WX    TMP DP  RH WIND       PRES   REMARKS
ANTIGO         FAIR      69  51  53 NW9       30.06F
6HR MIN TEMP:  50; 6HR MAX TEMP:  69;

STURGEON BAY   FAIR      66  48  52 NW6       30.04F
6HR MIN TEMP:  57; 6HR MAX TEMP:  66;

GREEN BAY      FAIR      70  54  56 N12       30.04F
6HR MIN TEMP:  58; 6HR MAX TEMP:  72;

MANITOWOC      PTSUNNY   68  57  68 SE12      30.04F
6HR MIN TEMP:  58; 6HR MAX TEMP:  70;

APPLETON       NOT AVBL
CLINTONVILLE   FAIR      72  46  40 NW3       30.03F
OSHKOSH        PTSUNNY   70  55  59 CALM      30.04F
6HR MIN TEMP:  61; 6HR MAX TEMP:  72;

$$

WIZ032>034-041-042-053>061-301900-
SOUTHWEST WISCONSIN

CITY           SKY/WX    TMP DP  RH WIND       PRES   REMARKS
LA CROSSE      FAIR      74  59  59 W5        30.07F
6HR MIN TEMP:  60; 6HR MAX TEMP:  74;

SPARTA         FAIR      69  56  63 CALM      30.09F
6HR MIN TEMP:  53; 6HR MAX TEMP:  69;

VIROQUA        FAIR      72  57  60 NW3       30.08F
6HR MIN TEMP:  56; 6HR MAX TEMP:  72;

BOSCOBEL       PTSUNNY   79  56  45 VRB5      30.06F HX  80
6HR MIN TEMP:  58; 6HR MAX TEMP:  81;

PRAIRIE DU CHI FAIR      77  53  44 W6        30.06F
6HR MIN TEMP:  58; 6HR MAX TEMP:  77;

PLATTEVILLE    FAIR      74  56  53 NW6       30.07F
6HR MIN TEMP:  57; 6HR MAX TEMP:  75;

$$

WIZ056-057-062-063-064-067-068-301900-
SOUTH CENTRAL WISCONSIN

CITY           SKY/WX    TMP DP  RH WIND       PRES   REMARKS
BARABOO/DELLS  FAIR      72  52  49 N3        30.07S
6HR MIN TEMP:  56; 6HR MAX TEMP:  72;

LONE ROCK      FAIR      79  57  46 VRB6      30.05F HX  80
6HR MIN TEMP:  59; 6HR MAX TEMP:  80;

WATERTOWN      PTSUNNY   69  58  68 W6        30.05F
6HR MIN TEMP:  57; 6HR MAX TEMP:  70; 6HR PCP:  0.05;

MADISON        FAIR      71  58  63 N8        30.06F
6HR MIN TEMP:  60; 6HR MAX TEMP:  72;

MIDDLETON      MOCLDY    73  56  54 N6        30.07S
6HR MIN TEMP:  58; 6HR MAX TEMP:  74;

MONROE         PTSUNNY   73  55  53 W8        30.05F
JANESVILLE     PTSUNNY   75  54  46 NW8       30.04F
$$

WIZ051-052-058>065-066-070>072-301900-
SOUTHEAST WISCONSIN

CITY           SKY/WX    TMP DP  RH WIND       PRES   REMARKS
MILWAUKEE      FAIR      69  58  67 NE10      30.05F
6HR MIN TEMP:  61; 6HR MAX TEMP:  69;

WAUKESHA       MOSUNNY   68  57  68 W6        30.06F
MILWAUKEE/TIMM PTSUNNY   70  55  60 NE5       30.05F
RACINE         FAIR      69  57  65 N8        30.07S
6HR MIN TEMP:  60; 6HR MAX TEMP:  69;

BURLINGTON     FAIR      67  58  71 N6        30.05F
6HR MIN TEMP:  58; 6HR MAX TEMP:  69;

KENOSHA        FAIR      70  60  70 NW8       30.05F
6HR MIN TEMP:  63; 6HR MAX TEMP:  71;

FOND DU LAC    FAIR      71  55  56 NE6       30.05F
6HR MIN TEMP:  59; 6HR MAX TEMP:  71;

SHEBOYGAN      PTSUNNY   72  54  53 N8        30.04F
6HR MIN TEMP:  58; 6HR MAX TEMP:  72;

WEST BEND      PTSUNNY   70  54  56 N6        30.04F
JUNEAU         PTSUNNY   67  55  64 CALM      30.06F
6HR MIN TEMP:  56; 6HR MAX TEMP:  70;

$$

LSZ147-162-301900-
LAKE SUPERIOR

STATION/POSITION TIME  TEMP    WIND        PRES    WAVE
                       AIR SEA DIR/SP/G            HT/PER
                 (UTC) (F)     (DEG/KT/KT) (MB)    (FT/S)
W MID LAKE BUOY  1750   48 42  220/ 12/ 14 1015.5F   1
PORT WING        1700   62     290/  6/  8 1017.3F
SAXON HARBOR     1740          280/  4/ 11 1016.9F
$$

LMZ867-665-643>646-301900-
LAKE MICHIGAN

STATION/POSITION TIME  TEMP    WIND        PRES    WAVE
                       AIR SEA DIR/SP/G            HT/PER
                 (UTC) (F)     (DEG/KT/KT) (MB)    (FT/S)
N MID LAKE BUOY  1750   52 55  200/  4/  4 1016.3F   1
NORTHPORT PIER   1700   62     320/  6/  7 1016.9S
SISTER BAY       1710   64     350/  9/  9   N/A
ALGOMA LAKESHORE 1606          350/  8/ 10   N/A
KEWAUNEE LAKESHO 1800   59     160/  5/  5 1017.9F
SHEBOYGAN LAKESH 1800   61     130/  8/  8 1017.5F
PORT WASHINGTON  1700   64      40/  5/  7 1018.6R
ATWATER BUOY     1800   62      50/  6     1018.6F
MILWAUKEE LAKESH 1800   62      50/  8/  9   N/A
S MID LAKE BUOY  1750   59 61  300/  8/ 10 1017.5F   1
KENOSHA   LAKESH 1800   62      40/ 13/ 14 1017.3S
$$

TC  - TEMPERATURE IN CELSIUS
VSB - VISIBILITY IN STATUTE MILES
WCI - WIND CHILL INDEX
HX  - HEAT INDEX



USA.gov is the U.S. government's official web portal to all federal, state and local government web resources and services.